Location: Ebersheim
(48.3033°N, 7.4991°E)
Time: 18:33:26
(UTC+00:00)

Cosmos 1092 Rocket - Pass Details

Date: 27 February 2020
Orbit: 955 x 994 km, 82.9° (Epoch: 27 March)

Event Time Altitude Azimuth Distance (km) Brightness Sun altitude
Rises 18:44:00 0° 353° (N) 3,723 7.2 -16.4°
Reaches altitude 10° 18:46:37 10° 358° (N) 2,771 6.5 -16.8°
Maximum altitude 18:52:51 54° 76° (ENE) 1,192 4.1 -17.8°
Enters shadow 18:58:48 11° 152° (SSE) 2,667 5.9 -18.8°
